Weather History for Jackson Hawkins Field, MS

Change the Weather History Date:

Tuesday, January 29, 2013

  Actual Average (KJAN) Record (KJAN)
Temperature  
Mean Temperature 72 °F 46 °F  
Max Temperature 79 °F 57 °F 81 °F (1917)
Min Temperature 64 °F 36 °F 9 °F (1966)
Degree Days  
Heating Degree Days 0 19  
Month to date heating degree days 570  
Since 1 July heating degree days 1520  
Cooling Degree Days 6 0  
Month to date cooling degree days 0  
Year to date cooling degree days 0  
Growing Degree Days 22 (Base 50)    
Moisture  
Dew Point 63 °F    
Average Humidity 75    
Maximum Humidity 94    
Minimum Humidity 58    
Precipitation  
Precipitation 0.00 in 0.18 in 2.23 in (1999)
Month to date precipitation 4.60  
Year to date precipitation 4.60  
Sea Level Pressure  
Sea Level Pressure 29.89 in    
Wind  
Wind Speed 14 mph (SSE)    
Max Wind Speed 26 mph    
Max Gust Speed 39 mph    
Visibility 9 miles    
Events      
T = Trace of Precipitation, MM = Missing Value Source: NWS Daily Summary

Daily Weather History Graph

Daily Weather History Graph

Search for Another Location

Airport:

Trip Planner

Search our weather history database for the weather conditions in past years. The results will help you decide how hot, cold, wet, or windy it might be!

Date:

Astronomy

Jan. 29, 2013 Rise Set
Actual Time 6:56 AM CST 5:31 PM CST
Civil Twilight 6:30 AM CST 5:57 PM CST
Nautical Twilight 6:01 AM CST 6:27 PM CST
Astronomical Twilight 5:32 AM CST 6:56 PM CST
Moon 8:14 PM CST (1/29) 8:05 AM CST (1/29)
Length of Visible Light 11h 26m
Length of Day
10h 35m
Waning Gibbous, 93% of the Moon is Illuminated
Jan 29
Waning Gibbous
Feb 3
Last Quarter
Feb 10
New
Feb 17
First Quarter
Feb 25
Full

Hourly Weather History & Observations

Time (CST) Temp. Dew Point Humidity Pressure Visibility Wind Dir Wind Speed Gust Speed Precip Events Conditions
12:23 AM 64.4 °F 60.8 °F 88% 30.11 in 7.0 mi SSE 10.4 mph - N/A   Overcast
12:39 AM 64.4 °F 62.6 °F 94% 30.11 in 7.0 mi SSE 9.2 mph - N/A   Overcast
12:53 AM 64.9 °F 62.1 °F 90% 30.09 in 7.0 mi SSE 10.4 mph - N/A   Overcast
1:53 AM 66.0 °F 62.1 °F 87% 30.06 in 8.0 mi SSE 8.1 mph - N/A   Overcast
2:48 AM 66.2 °F 62.6 °F 88% 30.08 in 8.0 mi SSE 9.2 mph - N/A   Overcast
2:53 AM 66.0 °F 62.1 °F 87% 30.05 in 8.0 mi SSE 8.1 mph - N/A   Overcast
3:05 AM 66.2 °F 62.6 °F 88% 30.07 in 7.0 mi SSE 9.2 mph - N/A   Overcast
3:39 AM 64.4 °F 62.6 °F 94% 30.05 in 6.0 mi SE 9.2 mph - N/A   Overcast
3:53 AM 64.9 °F 62.1 °F 90% 30.02 in 6.0 mi SSE 6.9 mph - N/A   Overcast
4:53 AM 66.0 °F 63.0 °F 90% 30.01 in 6.0 mi SSE 11.5 mph - N/A   Overcast
5:53 AM 66.9 °F 63.0 °F 87% 30.00 in 9.0 mi SSE 12.7 mph - N/A   Overcast
6:53 AM 66.9 °F 63.0 °F 87% 30.01 in 10.0 mi South 13.8 mph 19.6 mph N/A   Overcast
7:53 AM 68.0 °F 63.0 °F 84% 30.00 in 10.0 mi South 12.7 mph 20.7 mph N/A   Overcast
8:53 AM 69.1 °F 63.0 °F 81% 30.00 in 10.0 mi SSE 11.5 mph - N/A   Overcast
9:53 AM 72.0 °F 62.1 °F 71% 29.99 in 10.0 mi South 18.4 mph 24.2 mph N/A   Overcast
10:53 AM 73.9 °F 62.1 °F 66% 29.98 in 10.0 mi South 21.9 mph 27.6 mph N/A   Mostly Cloudy
11:31 AM 75.2 °F 60.8 °F 61% 29.97 in 10.0 mi South 21.9 mph 28.8 mph N/A   Scattered Clouds
11:41 AM 75.2 °F 60.8 °F 61% 29.96 in 10.0 mi SSE 23.0 mph 32.2 mph N/A   Mostly Cloudy
11:53 AM 77.0 °F 61.0 °F 58% 29.94 in 10.0 mi South 19.6 mph 29.9 mph N/A   Mostly Cloudy
12:53 PM 77.0 °F 61.0 °F 58% 29.88 in 10.0 mi South 13.8 mph 25.3 mph N/A   Mostly Cloudy
1:53 PM 78.1 °F 62.1 °F 58% 29.85 in 10.0 mi South 17.3 mph 31.1 mph N/A   Mostly Cloudy
2:53 PM 79.0 °F 63.0 °F 58% 29.82 in 10.0 mi South 19.6 mph 27.6 mph N/A   Mostly Cloudy
3:53 PM 78.1 °F 63.0 °F 60% 29.79 in 10.0 mi SSE 15.0 mph 26.5 mph N/A   Scattered Clouds
4:53 PM 77.0 °F 62.1 °F 60% 29.75 in 10.0 mi SSE 24.2 mph 31.1 mph N/A   Clear
5:53 PM 75.0 °F 62.1 °F 64% 29.75 in 10.0 mi South 13.8 mph 23.0 mph N/A   Clear
6:53 PM 73.9 °F 62.1 °F 66% 29.74 in 10.0 mi SSE 17.3 mph 21.9 mph N/A   Clear
7:53 PM 73.0 °F 64.0 °F 73% 29.74 in 10.0 mi South 21.9 mph 29.9 mph N/A   Mostly Cloudy
8:13 PM 73.4 °F 64.4 °F 73% 29.75 in 10.0 mi South 20.7 mph 31.1 mph N/A   Scattered Clouds
8:35 PM 73.4 °F 64.4 °F 73% 29.74 in 10.0 mi South 18.4 mph 31.1 mph N/A   Mostly Cloudy
8:53 PM 73.0 °F 64.9 °F 76% 29.70 in 10.0 mi South 19.6 mph 32.2 mph N/A   Overcast
9:42 PM 73.4 °F 64.4 °F 73% 29.70 in 10.0 mi SSE 20.7 mph 35.7 mph N/A   Mostly Cloudy
9:50 PM 73.4 °F 64.4 °F 73% 29.71 in 10.0 mi SSE 25.3 mph 32.2 mph N/A   Mostly Cloudy
9:53 PM 73.0 °F 64.9 °F 76% 29.69 in 10.0 mi South 26.5 mph 35.7 mph N/A   Mostly Cloudy
10:51 PM 73.4 °F 64.4 °F 73% 29.71 in 10.0 mi South 25.3 mph 39.1 mph N/A   Overcast
10:53 PM 73.9 °F 64.9 °F 73% 29.68 in 10.0 mi South 26.5 mph 39.1 mph N/A   Overcast
11:46 PM 73.4 °F 64.4 °F 73% 29.69 in 10.0 mi South 20.7 mph 28.8 mph N/A   Overcast
11:53 PM 73.9 °F 64.0 °F 71% 29.68 in 10.0 mi South 24.2 mph 36.8 mph N/A   Mostly Cloudy